Tracking 35331 objects as of 14-Sep-2026
HD Live streaming from Space Station
objects crossing your sky now

SATURN 5 R/B


SATURN 5 R/B is no longer on orbit


NORAD ID: 6634
Int'l Code: 1973-027B
Launch date: May 14, 1973
Source: United States (US)
Launch site: AIR FORCE EASTERN TEST RANGE (AFETR)
Decay date: 1975-01-11

Note: This is a ROCKET BODY
Your satellite tracking list
Your tracking list is empty




NASA's NSSDC Master Catalog

Two Line Element Set (TLE):
1 06634U 73027  B 75011.06028270  .10986298 +48532-1 +36522-3 0  9994
2 06634 050.0147 064.4088 0000009 295.5911 064.5053 16.45883663095297
Source of the keplerian elements: AFSPC